ARG1975 SULS-SACO

Flight info

Callsign ARG1975
Flight time 1h 32m
Altitude 36000
Route LUCIO UL405 PTA DCT ATOVO UW5 ASISA
Aircraft B738/M-SDE2E3FGHIRWXY/LB1

Departure

Time 2026-04-25 01:40
Airport Capitan Corbeta CA Curbelo International Airport (SULS)

Arrival

Time 2026-04-25 03:12
Airport Ingeniero Aeronáutico Ambrosio L.V. Taravella International Airport (SACO)
Time Latitude Longitude Altitude Speed Heading
2026-04-25 01:21 -34.85951 -55.09851 99 ft 0 kts 162°
2026-04-25 01:31 -34.85971 -55.09842 99 ft 6 kts 148°
2026-04-25 01:32 -34.85965 -55.09801 99 ft 6 kts 23°
2026-04-25 01:32 -34.85924 -55.09810 99 ft 6 kts 342°
2026-04-25 01:32 -34.85885 -55.09826 99 ft 6 kts 342°
2026-04-25 01:32 -34.85846 -55.09842 99 ft 6 kts 341°
2026-04-25 01:33 -34.85808 -55.09857 98 ft 6 kts 342°
2026-04-25 01:33 -34.85771 -55.09871 100 ft 6 kts 342°
2026-04-25 01:33 -34.85744 -55.09882 99 ft 2 kts 343°
2026-04-25 01:33 -34.85742 -55.09883 100 ft 0 kts 343°
2026-04-25 01:36 -34.85715 -55.09893 100 ft 10 kts 341°
2026-04-25 01:36 -34.85651 -55.09955 101 ft 12 kts 266°
2026-04-25 01:36 -34.85679 -55.10051 100 ft 12 kts 251°
2026-04-25 01:36 -34.85715 -55.10179 97 ft 22 kts 251°
2026-04-25 01:37 -34.85765 -55.10361 101 ft 23 kts 251°
2026-04-25 01:37 -34.85814 -55.10540 98 ft 22 kts 251°
2026-04-25 01:37 -34.85874 -55.10758 100 ft 31 kts 253°
2026-04-25 01:37 -34.85904 -55.10874 100 ft 15 kts 252°
2026-04-25 01:38 -34.85934 -55.11002 98 ft 16 kts 253°
2026-04-25 01:38 -34.85969 -55.11125 97 ft 15 kts 245°
2026-04-25 01:38 -34.85998 -55.11172 99 ft 4 kts 313°
2026-04-25 01:38 -34.85976 -55.11149 99 ft 5 kts 69°
2026-04-25 01:39 -34.85975 -55.11145 99 ft 0 kts 71°
2026-04-25 01:39 -34.85934 -55.10998 99 ft 55 kts 72°
2026-04-25 01:39 -34.85731 -55.10241 98 ft 130 kts 72°
2026-04-25 01:39 -34.85409 -55.09056 577 ft 145 kts 72°
2026-04-25 01:40 -34.85133 -55.08035 1649 ft 121 kts 71°
2026-04-25 01:40 -34.84857 -55.06924 1949 ft 156 kts 73°
2026-04-25 01:40 -34.84576 -55.05515 2316 ft 191 kts 86°
2026-04-25 01:40 -34.84946 -55.03837 2594 ft 225 kts 121°
2026-04-25 01:41 -34.86182 -55.02560 3069 ft 248 kts 154°
2026-04-25 01:41 -34.87963 -55.02269 3575 ft 271 kts 188°
2026-04-25 01:41 -34.89685 -55.03172 4575 ft 273 kts 220°
2026-04-25 01:41 -34.90761 -55.05044 5605 ft 272 kts 252°
2026-04-25 01:42 -34.91222 -55.07277 6567 ft 274 kts 259°
2026-04-25 01:42 -34.91583 -55.09577 7463 ft 279 kts 261°
2026-04-25 01:42 -34.91943 -55.11917 8376 ft 282 kts 260°
2026-04-25 01:42 -34.92324 -55.14283 9259 ft 287 kts 259°
2026-04-25 01:43 -34.92719 -55.16644 10148 ft 289 kts 259°
2026-04-25 01:43 -34.93142 -55.19093 10735 ft 306 kts 259°
2026-04-25 01:43 -34.93609 -55.21743 10937 ft 332 kts 258°
2026-04-25 01:43 -34.94121 -55.24596 11133 ft 356 kts 258°
2026-04-25 01:44 -34.94670 -55.27618 11506 ft 372 kts 258°
2026-04-25 01:44 -34.95237 -55.30721 12176 ft 376 kts 258°
2026-04-25 01:44 -34.95809 -55.33834 13014 ft 376 kts 258°
2026-04-25 01:44 -34.96382 -55.36947 13798 ft 377 kts 258°
2026-04-25 01:45 -34.96958 -55.40086 14525 ft 380 kts 258°
2026-04-25 01:45 -34.97534 -55.43235 15268 ft 381 kts 258°
2026-04-25 01:45 -34.98107 -55.46397 16005 ft 383 kts 258°
2026-04-25 01:45 -34.98682 -55.49578 16683 ft 385 kts 258°
2026-04-25 01:46 -34.99262 -55.52776 17345 ft 386 kts 258°
2026-04-25 01:46 -34.99846 -55.55983 17979 ft 389 kts 258°
2026-04-25 01:46 -35.00427 -55.59172 18591 ft 391 kts 258°
2026-04-25 01:46 -35.01019 -55.62421 19198 ft 394 kts 258°
2026-04-25 01:47 -35.01613 -55.65693 19772 ft 396 kts 259°
2026-04-25 01:47 -35.02210 -55.68984 20333 ft 399 kts 259°
2026-04-25 01:47 -35.02810 -55.72299 20850 ft 401 kts 259°
2026-04-25 01:47 -35.03415 -55.75638 21383 ft 403 kts 259°
2026-04-25 01:48 -35.04020 -55.78990 21903 ft 405 kts 259°
2026-04-25 01:48 -35.04624 -55.82354 22385 ft 407 kts 259°
2026-04-25 01:48 -35.05189 -55.85755 22819 ft 409 kts 263°
2026-04-25 01:48 -35.05400 -55.89216 23282 ft 410 kts 271°
2026-04-25 01:49 -35.05195 -55.92686 23725 ft 411 kts 276°
2026-04-25 01:49 -35.04925 -55.96164 24148 ft 413 kts 276°
2026-04-25 01:49 -35.04664 -55.99671 24556 ft 415 kts 276°
2026-04-25 01:49 -35.04418 -56.03189 24952 ft 418 kts 275°
2026-04-25 01:50 -35.04178 -56.06724 25321 ft 420 kts 275°
2026-04-25 01:50 -35.03940 -56.10235 25698 ft 421 kts 275°
2026-04-25 01:50 -35.03697 -56.13802 26064 ft 423 kts 275°
2026-04-25 01:50 -35.03448 -56.17386 26416 ft 424 kts 275°
2026-04-25 01:51 -35.03194 -56.20976 26753 ft 425 kts 275°
2026-04-25 01:51 -35.02938 -56.24583 27072 ft 427 kts 275°
2026-04-25 01:51 -35.02681 -56.28197 27384 ft 429 kts 275°
2026-04-25 01:51 -35.02423 -56.31820 27692 ft 430 kts 275°
2026-04-25 01:52 -35.02165 -56.35466 27976 ft 431 kts 275°
2026-04-25 01:52 -35.01906 -56.39101 28362 ft 430 kts 275°
2026-04-25 01:52 -35.01647 -56.42721 28812 ft 427 kts 275°
2026-04-25 01:52 -35.01389 -56.46318 29276 ft 424 kts 275°
2026-04-25 01:53 -35.01131 -56.49894 29751 ft 421 kts 275°
2026-04-25 01:53 -35.00875 -56.53437 30185 ft 419 kts 275°
2026-04-25 01:53 -35.00619 -56.56966 30596 ft 416 kts 275°
2026-04-25 01:53 -35.00362 -56.60478 30972 ft 415 kts 275°
2026-04-25 01:54 -35.00107 -56.63975 31327 ft 414 kts 275°
2026-04-25 01:54 -34.99854 -56.67424 31695 ft 412 kts 275°
2026-04-25 01:54 -34.99598 -56.70888 32093 ft 409 kts 275°
2026-04-25 01:54 -34.99344 -56.74337 32491 ft 407 kts 275°
2026-04-25 01:55 -34.99091 -56.77770 32857 ft 405 kts 275°
2026-04-25 01:55 -34.98838 -56.81184 33203 ft 403 kts 276°
2026-04-25 01:55 -34.98582 -56.84590 33522 ft 402 kts 275°
2026-04-25 01:55 -34.98331 -56.87975 33895 ft 400 kts 275°
2026-04-25 01:56 -34.98247 -56.91352 34248 ft 398 kts 271°
2026-04-25 01:56 -34.98242 -56.94723 34522 ft 397 kts 271°
2026-04-25 01:56 -34.98240 -56.98092 34792 ft 397 kts 271°
2026-04-25 01:56 -34.98233 -57.01452 35108 ft 395 kts 271°
2026-04-25 01:57 -34.98198 -57.08118 35725 ft 392 kts 272°
2026-04-25 01:57 -34.98180 -57.11397 35947 ft 392 kts 272°
2026-04-25 01:57 -34.98162 -57.14712 36060 ft 390 kts 272°
2026-04-25 01:58 -34.98144 -57.18029 36066 ft 392 kts 272°
2026-04-25 01:58 -34.98109 -57.24676 36077 ft 392 kts 271°
2026-04-25 01:59 -34.98076 -57.31318 36075 ft 392 kts 271°
2026-04-25 01:59 -34.98034 -57.37968 36076 ft 392 kts 271°
2026-04-25 02:00 -34.97992 -57.44627 36075 ft 393 kts 271°
2026-04-25 02:00 -34.97942 -57.51283 36074 ft 393 kts 271°
2026-04-25 02:01 -34.97889 -57.57938 36072 ft 393 kts 272°
2026-04-25 02:01 -34.97834 -57.64595 36076 ft 392 kts 272°
2026-04-25 02:02 -34.97778 -57.71252 36076 ft 392 kts 272°
2026-04-25 02:02 -34.97717 -57.77906 36072 ft 392 kts 272°
2026-04-25 02:03 -34.97617 -57.84514 36071 ft 392 kts 276°
2026-04-25 02:03 -34.97049 -57.87761 36080 ft 392 kts 287°
2026-04-25 02:03 -34.96048 -57.90866 36074 ft 394 kts 292°
2026-04-25 02:04 -34.92953 -57.96429 36083 ft 401 kts 306°
2026-04-25 02:04 -34.89237 -58.01526 36076 ft 402 kts 307°
2026-04-25 02:05 -34.85519 -58.06605 36072 ft 401 kts 306°
2026-04-25 02:05 -34.81848 -58.11658 36077 ft 400 kts 306°
2026-04-25 02:06 -34.78168 -58.16742 36069 ft 400 kts 306°
2026-04-25 02:06 -34.74495 -58.21821 36068 ft 399 kts 306°
2026-04-25 02:07 -34.70828 -58.26883 36065 ft 399 kts 306°
2026-04-25 02:07 -34.67162 -58.31940 36067 ft 398 kts 306°
2026-04-25 02:08 -34.63496 -58.36987 36067 ft 398 kts 306°
2026-04-25 02:08 -34.59828 -58.42029 36075 ft 398 kts 306°
2026-04-25 02:09 -34.56164 -58.47057 36077 ft 398 kts 306°
2026-04-25 02:09 -34.52512 -58.52063 36068 ft 398 kts 306°
2026-04-25 02:10 -34.48843 -58.57088 36059 ft 398 kts 306°
2026-04-25 02:10 -34.45164 -58.62120 36046 ft 399 kts 306°
2026-04-25 02:11 -34.41481 -58.67145 36043 ft 399 kts 306°
2026-04-25 02:11 -34.37795 -58.72167 36048 ft 399 kts 306°
2026-04-25 02:12 -34.34122 -58.77168 36046 ft 399 kts 306°
2026-04-25 02:12 -34.30432 -58.82183 36048 ft 399 kts 306°
2026-04-25 02:13 -34.26744 -58.87189 36042 ft 399 kts 306°
2026-04-25 02:13 -34.23050 -58.92195 36041 ft 399 kts 306°
2026-04-25 02:14 -34.19360 -58.97190 36054 ft 399 kts 306°
2026-04-25 02:14 -34.15667 -59.02185 36040 ft 398 kts 306°
2026-04-25 02:15 -34.11974 -59.07173 36050 ft 398 kts 306°
2026-04-25 02:15 -34.08902 -59.11317 36050 ft 398 kts 306°
2026-04-25 02:16 -34.05212 -59.16308 36047 ft 398 kts 305°
2026-04-25 02:16 -34.01660 -59.21400 36047 ft 396 kts 304°
2026-04-25 02:17 -33.98140 -59.26515 36052 ft 396 kts 303°
2026-04-25 02:17 -33.94617 -59.31608 36048 ft 396 kts 304°
2026-04-25 02:18 -33.91087 -59.36682 36037 ft 395 kts 304°
2026-04-25 02:18 -33.87562 -59.41738 36046 ft 394 kts 304°
2026-04-25 02:19 -33.84038 -59.46784 36051 ft 392 kts 304°
2026-04-25 02:19 -33.80523 -59.51807 36046 ft 392 kts 304°
2026-04-25 02:20 -33.77015 -59.56827 36049 ft 392 kts 304°
2026-04-25 02:20 -33.73522 -59.61816 36051 ft 393 kts 304°
2026-04-25 02:21 -33.69993 -59.66840 36038 ft 394 kts 304°
2026-04-25 02:21 -33.66454 -59.71862 36053 ft 394 kts 304°
2026-04-25 02:22 -33.62902 -59.76890 36047 ft 396 kts 304°
2026-04-25 02:22 -33.59336 -59.81932 36047 ft 397 kts 304°
2026-04-25 02:23 -33.55760 -59.86989 36050 ft 397 kts 304°
2026-04-25 02:23 -33.52181 -59.92046 36055 ft 397 kts 304°
2026-04-25 02:24 -33.48592 -59.97093 36051 ft 397 kts 304°
2026-04-25 02:24 -33.45021 -60.02128 36050 ft 396 kts 304°
2026-04-25 02:25 -33.41448 -60.07150 36044 ft 396 kts 304°
2026-04-25 02:25 -33.37881 -60.12160 36047 ft 395 kts 304°
2026-04-25 02:26 -33.34331 -60.17146 36055 ft 393 kts 304°
2026-04-25 02:26 -33.30771 -60.22135 36051 ft 393 kts 304°
2026-04-25 02:27 -33.27239 -60.27077 36047 ft 393 kts 304°
2026-04-25 02:27 -33.23685 -60.32038 36042 ft 393 kts 304°
2026-04-25 02:28 -33.20134 -60.36991 36046 ft 392 kts 304°
2026-04-25 02:28 -33.16586 -60.41937 36050 ft 392 kts 304°
2026-04-25 02:29 -33.13045 -60.46865 36042 ft 391 kts 304°
2026-04-25 02:29 -33.09507 -60.51776 36044 ft 390 kts 304°
2026-04-25 02:30 -33.05972 -60.56690 36048 ft 390 kts 304°
2026-04-25 02:30 -33.02440 -60.61586 36038 ft 389 kts 304°
2026-04-25 02:31 -32.98908 -60.66472 36048 ft 389 kts 303°
2026-04-25 02:31 -32.95375 -60.71362 36044 ft 389 kts 303°
2026-04-25 02:32 -32.91845 -60.76234 36040 ft 388 kts 303°
2026-04-25 02:32 -32.88796 -60.81440 36061 ft 380 kts 295°
2026-04-25 02:33 -32.86135 -60.86879 36051 ft 380 kts 295°
2026-04-25 02:33 -32.83482 -60.92281 36051 ft 381 kts 295°
2026-04-25 02:34 -32.80799 -60.97718 36040 ft 380 kts 295°
2026-04-25 02:34 -32.78119 -61.03140 36044 ft 380 kts 295°
2026-04-25 02:35 -32.75435 -61.08552 36042 ft 380 kts 295°
2026-04-25 02:35 -32.72748 -61.13966 36049 ft 381 kts 295°
2026-04-25 02:36 -32.70050 -61.19392 36045 ft 381 kts 295°
2026-04-25 02:36 -32.67356 -61.24804 36052 ft 381 kts 295°
2026-04-25 02:37 -32.64657 -61.30217 36045 ft 381 kts 295°
2026-04-25 02:37 -32.61971 -61.35597 36047 ft 381 kts 295°
2026-04-25 02:38 -32.59262 -61.41015 36047 ft 381 kts 295°
2026-04-25 02:38 -32.56558 -61.46416 36047 ft 381 kts 295°
2026-04-25 02:39 -32.53850 -61.51815 36049 ft 380 kts 295°
2026-04-25 02:39 -32.51165 -61.57163 36035 ft 380 kts 295°
2026-04-25 02:40 -32.48460 -61.62541 36046 ft 380 kts 295°
2026-04-25 02:40 -32.45756 -61.67909 36043 ft 379 kts 295°
2026-04-25 02:41 -32.43052 -61.73278 36049 ft 379 kts 295°
2026-04-25 02:41 -32.40348 -61.78633 36046 ft 379 kts 295°
2026-04-25 02:42 -32.37648 -61.83980 36043 ft 379 kts 295°
2026-04-25 02:42 -32.34940 -61.89327 36052 ft 379 kts 295°
2026-04-25 02:43 -32.32224 -61.94678 36048 ft 379 kts 295°
2026-04-25 02:43 -32.29500 -62.00012 36045 ft 379 kts 295°
2026-04-25 02:44 -32.26773 -62.05355 36045 ft 379 kts 295°
2026-04-25 02:44 -32.24053 -62.10684 36044 ft 379 kts 295°
2026-04-25 02:45 -32.21331 -62.16010 36046 ft 379 kts 295°
2026-04-25 02:45 -32.18624 -62.21297 36042 ft 379 kts 295°
2026-04-25 02:46 -32.15896 -62.26621 36049 ft 379 kts 295°
2026-04-25 02:46 -32.13169 -62.31935 36038 ft 379 kts 295°
2026-04-25 02:47 -32.10435 -62.37256 36047 ft 379 kts 295°
2026-04-25 02:47 -32.07700 -62.42572 36046 ft 379 kts 295°
2026-04-25 02:48 -32.04959 -62.47889 36055 ft 379 kts 295°
2026-04-25 02:48 -32.02218 -62.53200 36054 ft 379 kts 295°
2026-04-25 02:49 -31.99496 -62.58469 36060 ft 379 kts 295°
2026-04-25 02:49 -31.96755 -62.63765 36053 ft 378 kts 295°
2026-04-25 02:49 -31.95372 -62.66437 35519 ft 382 kts 295°
2026-04-25 02:50 -31.93998 -62.69084 34815 ft 379 kts 295°
2026-04-25 02:50 -31.92626 -62.71728 34132 ft 378 kts 295°
2026-04-25 02:50 -31.91252 -62.74375 33375 ft 379 kts 295°
2026-04-25 02:50 -31.89879 -62.77020 32605 ft 380 kts 295°
2026-04-25 02:51 -31.88499 -62.79677 31816 ft 381 kts 296°
2026-04-25 02:51 -31.87113 -62.82343 31170 ft 380 kts 296°
2026-04-25 02:51 -31.85741 -62.84974 30615 ft 375 kts 296°
2026-04-25 02:51 -31.84384 -62.87574 30072 ft 372 kts 296°
2026-04-25 02:52 -31.83038 -62.90153 29526 ft 368 kts 296°
2026-04-25 02:52 -31.81708 -62.92706 28982 ft 364 kts 296°
2026-04-25 02:52 -31.80389 -62.95229 28440 ft 361 kts 296°
2026-04-25 02:52 -31.79077 -62.97742 27919 ft 359 kts 297°
2026-04-25 02:53 -31.77776 -63.00232 27365 ft 356 kts 297°
2026-04-25 02:53 -31.76480 -63.02716 26842 ft 359 kts 297°
2026-04-25 02:53 -31.75150 -63.05269 26309 ft 374 kts 297°
2026-04-25 02:53 -31.73777 -63.07898 25732 ft 376 kts 298°
2026-04-25 02:54 -31.72412 -63.10501 25162 ft 373 kts 298°
2026-04-25 02:54 -31.71074 -63.13051 24610 ft 369 kts 298°
2026-04-25 02:54 -31.69715 -63.15643 24051 ft 366 kts 298°
2026-04-25 02:54 -31.68385 -63.18175 23506 ft 363 kts 298°
2026-04-25 02:55 -31.67065 -63.20685 22974 ft 360 kts 298°
2026-04-25 02:55 -31.65691 -63.23088 22447 ft 359 kts 303°
2026-04-25 02:55 -31.64174 -63.25417 21917 ft 358 kts 304°
2026-04-25 02:55 -31.62635 -63.27696 21391 ft 355 kts 305°
2026-04-25 02:56 -31.61102 -63.29960 20872 ft 353 kts 305°
2026-04-25 02:56 -31.59587 -63.32214 20358 ft 350 kts 305°
2026-04-25 02:56 -31.58092 -63.34455 19853 ft 348 kts 305°
2026-04-25 02:56 -31.56607 -63.36694 19347 ft 346 kts 304°
2026-04-25 02:57 -31.55136 -63.38919 18848 ft 345 kts 305°
2026-04-25 02:57 -31.53671 -63.41134 18348 ft 343 kts 305°
2026-04-25 02:57 -31.52214 -63.43340 17854 ft 341 kts 305°
2026-04-25 02:57 -31.50764 -63.45536 17360 ft 340 kts 305°
2026-04-25 02:58 -31.49320 -63.47721 16865 ft 338 kts 305°
2026-04-25 02:58 -31.47878 -63.49899 16386 ft 337 kts 305°
2026-04-25 02:58 -31.46444 -63.52061 15890 ft 336 kts 305°
2026-04-25 02:58 -31.45013 -63.54219 15416 ft 334 kts 306°
2026-04-25 02:59 -31.43589 -63.56363 14932 ft 333 kts 306°
2026-04-25 02:59 -31.42168 -63.58500 14448 ft 332 kts 306°
2026-04-25 02:59 -31.40748 -63.60633 13966 ft 331 kts 306°
2026-04-25 02:59 -31.39336 -63.62753 13484 ft 330 kts 306°
2026-04-25 03:00 -31.37920 -63.64880 12835 ft 334 kts 306°
2026-04-25 03:00 -31.36977 -63.66296 12489 ft 334 kts 306°
2026-04-25 03:00 -31.35082 -63.69137 11823 ft 333 kts 306°
2026-04-25 03:00 -31.34122 -63.70575 11498 ft 332 kts 306°
2026-04-25 03:01 -31.32243 -63.73390 10886 ft 329 kts 307°
2026-04-25 03:01 -31.30857 -63.75465 10750 ft 318 kts 307°
2026-04-25 03:01 -31.29965 -63.76803 10644 ft 311 kts 307°
2026-04-25 03:01 -31.28225 -63.79411 10462 ft 298 kts 307°
2026-04-25 03:02 -31.27388 -63.80664 10354 ft 292 kts 307°
2026-04-25 03:02 -31.26155 -63.82512 10200 ft 284 kts 307°
2026-04-25 03:02 -31.24957 -63.84308 10082 ft 276 kts 307°
2026-04-25 03:02 -31.23790 -63.86055 9879 ft 271 kts 307°
2026-04-25 03:03 -31.22632 -63.87787 9594 ft 269 kts 307°
2026-04-25 03:03 -31.21479 -63.89507 9325 ft 268 kts 307°
2026-04-25 03:03 -31.20318 -63.91241 9039 ft 267 kts 307°
2026-04-25 03:03 -31.19186 -63.92930 8761 ft 266 kts 308°
2026-04-25 03:04 -31.18047 -63.94628 8481 ft 265 kts 308°
2026-04-25 03:04 -31.16911 -63.96319 8196 ft 264 kts 308°
2026-04-25 03:04 -31.15779 -63.98004 7920 ft 264 kts 308°
2026-04-25 03:05 -31.13527 -64.01361 7360 ft 262 kts 308°
2026-04-25 03:05 -31.12408 -64.03030 7082 ft 261 kts 308°
2026-04-25 03:05 -31.11295 -64.04685 6934 ft 255 kts 308°
2026-04-25 03:05 -31.10218 -64.06289 6802 ft 248 kts 308°
2026-04-25 03:06 -31.09166 -64.07850 6688 ft 241 kts 308°
2026-04-25 03:06 -31.08251 -64.09447 6543 ft 235 kts 290°
2026-04-25 03:06 -31.08093 -64.11291 6504 ft 226 kts 268°
2026-04-25 03:06 -31.08183 -64.13143 6246 ft 229 kts 267°
2026-04-25 03:07 -31.08281 -64.14987 6028 ft 227 kts 266°
2026-04-25 03:07 -31.08382 -64.16821 5776 ft 226 kts 267°
2026-04-25 03:07 -31.08479 -64.18650 5540 ft 225 kts 266°
2026-04-25 03:07 -31.08923 -64.20374 5263 ft 224 kts 231°
2026-04-25 03:08 -31.10206 -64.21258 5068 ft 215 kts 186°
2026-04-25 03:08 -31.11658 -64.21161 4868 ft 206 kts 174°
2026-04-25 03:08 -31.13068 -64.21083 4647 ft 199 kts 179°
2026-04-25 03:08 -31.14435 -64.21068 4552 ft 197 kts 179°
2026-04-25 03:09 -31.15779 -64.21051 4298 ft 187 kts 179°
2026-04-25 03:09 -31.17022 -64.21033 4086 ft 173 kts 179°
2026-04-25 03:09 -31.18198 -64.21017 3830 ft 160 kts 179°
2026-04-25 03:09 -31.19288 -64.21003 3620 ft 154 kts 179°
2026-04-25 03:10 -31.20354 -64.20986 3430 ft 153 kts 178°
2026-04-25 03:10 -31.21408 -64.20971 3233 ft 154 kts 179°
2026-04-25 03:10 -31.22485 -64.20957 3034 ft 155 kts 180°
2026-04-25 03:10 -31.23548 -64.20941 2820 ft 150 kts 180°
2026-04-25 03:11 -31.24575 -64.20926 2618 ft 145 kts 180°
2026-04-25 03:11 -31.25587 -64.20910 2425 ft 145 kts 179°
2026-04-25 03:11 -31.26601 -64.20878 2204 ft 146 kts 179°
2026-04-25 03:11 -31.27612 -64.20852 2013 ft 145 kts 180°
2026-04-25 03:12 -31.28616 -64.20855 1819 ft 143 kts 179°
2026-04-25 03:12 -31.29600 -64.20849 1639 ft 138 kts 180°
2026-04-25 03:12 -31.30417 -64.20842 1617 ft 60 kts 179°
2026-04-25 03:12 -31.30695 -64.20840 1612 ft 41 kts 179°
2026-04-25 03:13 -31.30966 -64.20836 1618 ft 34 kts 179°
2026-04-25 03:13 -31.31197 -64.20831 1619 ft 32 kts 179°
2026-04-25 03:13 -31.31384 -64.20830 1612 ft 21 kts 182°
2026-04-25 03:13 -31.31465 -64.20901 1619 ft 12 kts 262°
2026-04-25 03:14 -31.31466 -64.20973 1615 ft 7 kts 268°
2026-04-25 03:14 -31.31470 -64.21028 1617 ft 7 kts 262°
2026-04-25 03:14 -31.31469 -64.21080 1614 ft 6 kts 289°
2026-04-25 03:14 -31.31433 -64.21102 1614 ft 6 kts
2026-04-25 03:15 -31.31390 -64.21101 1616 ft 6 kts
2026-04-25 03:15 -31.31344 -64.21100 1613 ft 7 kts
2026-04-25 03:15 -31.31297 -64.21100 1621 ft 7 kts 358°
2026-04-25 03:15 -31.31270 -64.21123 1616 ft 3 kts 290°
2026-04-25 03:16 -31.31266 -64.21152 1612 ft 4 kts 273°
2026-04-25 03:16 -31.31264 -64.21179 1612 ft 2 kts 274°
2026-04-25 03:16 -31.31264 -64.21183 1612 ft 0 kts 273°